Flag for U.S.A. Weather past 2 weeks in Miami, Florida, U.S.A.

Now
78 °F

Partly cloudy.


Feels Like: 81 °F
Forecast: 75 / 87 °F
Wind: No wind

Location: Miami International Airport

Current Time: Sep 17, 2014 at 5:41:03 AM

Latest Report: Sep 17, 2014 at 4:53 AM


Visibility: 10 mi

Pressure: 29.95 "Hg

Humidity: 87%

Dew point: 74 °F

Location of MiamiLocation

Historic Weather in Miami — Graph

°F

Miami temperature yesterday

Maximum temperature yesterday: 89 °F (at 11:53 AM)
Minimum temperature yesterday: 79 °F (at 4:53 AM)
Average temperature yesterday: 83 °F

Past Weeks' High & Low Weather Summary

 TemperatureHumidityPressure
High90 °F (Sep 5, 1:53 PM)96% (Sep 7, 4:53 AM)30.16 "Hg (Sep 7, 4:53 AM)
Low75 °F (Sep 12, 8:53 AM)51% (Sep 11, 12:53 PM)29.93 "Hg (Sep 12, 4:53 PM)
Average82 °F75%30.03 "Hg
* Reported Sep 2 3:53 AM — Sep 17 3:53 AM, Miami, Weather by CustomWeather, © 2014

Note: Actual official high and low records may vary slightly from our data, if they occured in-between our weather recording intervals... More about our weather records

Advertising

Miami weather history for previous 24 hours

 ConditionsComfort  
Time TempWeatherWind HumidityBarometerVisibility
3:53 AM
Sep 17
78 °FPassing clouds.No wind87%29.95 "Hg10 mi
2:53 AM78 °FPassing clouds.3 mph90%29.97 "Hg10 mi
1:53 AM79 °FPassing clouds.3 mph84%29.98 "Hg10 mi
12:53 AM79 °FPartly cloudy.No wind82%30.01 "Hg10 mi
11:53 PM
Sep 16
79 °FPartly cloudy.No wind84%30.02 "Hg10 mi
10:53 PM79 °FPassing clouds.5 mph84%30.03 "Hg10 mi
9:53 PM80 °FPassing clouds.5 mph81%30.03 "Hg10 mi
8:53 PM80 °FPassing clouds.3 mph79%30.00 "Hg10 mi
7:53 PM82 °FBroken clouds.5 mph77%30.00 "Hg10 mi
6:53 PM84 °FBroken clouds.No wind70%30.00 "Hg10 mi
5:53 PM84 °FBroken clouds.5 mph67%29.99 "Hg10 mi
4:53 PM83 °FBroken clouds.3 mph70%29.98 "Hg10 mi
3:53 PM80 °FBroken clouds.6 mph76%30.01 "Hg10 mi
2:53 PM86 °FThunderstorms. Broken clouds.10 mph63%30.02 "Hg10 mi
1:53 PM88 °FBroken clouds.9 mph59%30.02 "Hg10 mi
12:53 PM89 °FBroken clouds.8 mph57%30.04 "Hg10 mi
11:53 AM89 °FBroken clouds.5 mph59%30.06 "Hg10 mi
10:53 AM87 °FBroken clouds.5 mph61%30.07 "Hg10 mi
9:53 AM86 °FBroken clouds.5 mph67%30.08 "Hg10 mi
8:53 AM85 °FScattered clouds.No wind72%30.09 "Hg10 mi
7:53 AM82 °FPassing clouds.No wind82%30.09 "Hg10 mi
6:53 AM80 °FPassing clouds.No wind81%30.08 "Hg10 mi
5:53 AM80 °FPassing clouds.No wind81%30.07 "Hg10 mi
Weather by CustomWeather, © 2014

See weather overviewHow to use our weather pages